Location: Kershaw
(34.5481°N, 80.5823°W)
Time: 21:10:25
(UTC+00:00)

deb Explorer IX - Pass Details

Date: 12 October 2022
Orbit: 533 x 1057 km, 38.8° (Epoch: 06 December)

Event Time Altitude Azimuth Distance (km) Brightness Sun altitude
Exits shadow 10:51:16 - 290° (WNW) 1,977 ? -7.8°
Reaches altitude 10° 10:51:28 10° 291° (WNW) 1,896 ? -7.8°
Maximum altitude 10:55:44 53° 9° (N) 773 ? -6.9°
Drops below altitude 10° 11:00:36 10° 86° (E) 2,164 ? -5.9°
Sets 11:03:16 0° 91° (E) 3,178 ? -5.4°
